Location: Prairie View Elementary School
(39.8322°N, 99.5698°W)
Time: 16:55:20
(UTC+00:00)

OAO 2 Rocket - Pass Details

Date: 08 December 2019
Orbit: 676 x 746 km, 35.0° (Epoch: 20 January)

Event Time Altitude Azimuth Distance (km) Brightness Sun altitude
Rises 00:21:06 0° 245° (WSW) 3,040 8.6 -12.7°
Reaches altitude 10° 00:23:34 10° 238° (WSW) 2,135 7.2 -13.1°
Maximum altitude 00:28:16 42° 168° (SSE) 997 4.1 -14.0°
Enters shadow 00:31:45 17° 105° (ESE) 1,732 4.8 -14.6°
